Find Hinode

NORAD ID: 29479 Int'l Des: 2006-041 Owner: ISASJ Country: J operational
LEOCIRCULARRETROGRADESSO

Live-Position

3D-Globus wird geladen...

Über Hinode

Beschreibung wird geladen...

Nächste Überflüge

Passes for default location (London). Set your location on the main map for personalized predictions.

Höhenverlauf

Loading altitude history...

Zweizeiliger Elementsatz

1 29479U 06041A 26104.75259569 .00000354 00000-0 69379-4 0 9993
2 29479 98.0592 121.8337 0018701 126.8249 233.4675 14.68532265 45562
Epoch: 14. Apr. 2026 • Age: 7 hours

Aktueller Status

Höhe 669.8 km
Geschwindigkeit 7.53 km/s
Subsatellitenpunkt 75.85°N, 129.43°W
Startdatum 22. Sept. 2006
Alter 19.5 years
Typ other

Technische Details

Klassifizierung Payload
Masse 900.00 kg
Trockenmasse 900.00 kg
Gesamtmasse 900.00 kg
Länge 3.80 m
Durchmesser 1.60 m
Spannweite 10.30 m
Form Box + 2 Pan
Hersteller MELCO
Bus-Typ SOLAR B
Phasenstatus In Orbit
Besitzer/Staat ISASJ/J

Most Searched